Time,TemperatureF,DewpointF,PressureIn,WindDirection,WindDirectionDegrees,WindSpeedMPH,WindSpeedGustMPH,Humidity,HourlyPrecipIn,Conditions,Clouds,dailyrainin,SoftwareType,DateUTC
2013-02-17 00:02:00,21.0,19.0,29.79,WSW,244,0.0,0.0,92,0.00,,,-99.99,,2013-02-17 05:02:00,
2013-02-17 00:12:00,21.0,19.0,29.78,WSW,244,0.0,0.0,92,0.00,,,-99.99,,2013-02-17 05:12:00,
2013-02-17 00:22:00,21.0,19.0,29.78,WSW,244,0.0,0.0,92,0.00,,,-99.99,,2013-02-17 05:22:00,
2013-02-17 00:33:00,21.0,19.0,29.78,WSW,244,0.0,0.0,92,0.00,,,-99.99,,2013-02-17 05:33:00,
2013-02-17 00:42:00,21.0,19.0,29.78,WSW,244,0.0,0.0,92,0.00,,,-99.99,,2013-02-17 05:42:00,
2013-02-17 00:52:00,21.0,19.0,29.78,WSW,244,0.0,0.0,92,0.00,,,-99.99,,2013-02-17 05:52:00,
2013-02-17 01:02:00,22.0,20.0,29.78,WSW,244,0.0,0.0,92,0.00,,,-99.99,,2013-02-17 06:02:00,
2013-02-17 01:11:00,22.0,20.0,29.78,WSW,244,0.0,0.0,92,0.00,,,-99.99,,2013-02-17 06:11:00,
2013-02-17 01:21:00,22.0,20.0,29.78,WSW,244,0.0,0.0,93,0.00,,,-99.99,,2013-02-17 06:21:00,
2013-02-17 01:31:00,22.0,20.0,29.78,WSW,244,0.0,0.0,93,0.00,,,-99.99,,2013-02-17 06:31:00,
2013-02-17 01:42:00,22.0,20.0,29.78,WSW,244,0.0,0.0,93,0.00,,,-99.99,,2013-02-17 06:42:00,
2013-02-17 01:52:00,22.0,20.0,29.78,WSW,244,0.0,0.0,93,0.00,,,-99.99,,2013-02-17 06:52:00,
2013-02-17 02:01:00,22.0,21.0,29.78,WSW,244,0.0,0.0,94,0.00,,,-99.99,,2013-02-17 07:01:00,
2013-02-17 02:11:00,21.0,20.0,29.78,SW,234,0.0,6.0,94,0.00,,,-99.99,,2013-02-17 07:11:00,
2013-02-17 02:21:00,21.0,20.0,29.78,SW,234,0.0,6.0,94,0.00,,,-99.99,,2013-02-17 07:21:00,
2013-02-17 02:32:00,21.0,20.0,29.78,SW,220,0.0,0.0,94,0.00,,,-99.99,,2013-02-17 07:32:00,
2013-02-17 02:42:00,21.0,20.0,29.78,SW,220,0.0,0.0,94,0.00,,,-99.99,,2013-02-17 07:42:00,
2013-02-17 02:52:00,21.0,20.0,29.78,SW,220,0.0,0.0,94,0.00,,,-99.99,,2013-02-17 07:52:00,
2013-02-17 03:01:00,20.0,19.0,29.78,SW,222,0.0,9.0,94,0.00,,,-99.99,,2013-02-17 08:01:00,
2013-02-17 03:11:00,20.0,19.0,29.78,SW,222,0.0,9.0,94,0.00,,,-99.99,,2013-02-17 08:11:00,
2013-02-17 03:21:00,20.0,19.0,29.78,SSW,207,1.0,9.0,94,0.00,,,-99.99,,2013-02-17 08:21:00,
2013-02-17 03:32:00,20.0,19.0,29.76,SW,218,2.0,11.0,94,0.00,,,-99.99,,2013-02-17 08:32:00,
2013-02-17 03:42:00,20.0,19.0,29.76,SW,218,2.0,11.0,94,0.00,,,-99.99,,2013-02-17 08:42:00,
2013-02-17 03:52:00,20.0,19.0,29.76,SSW,209,0.0,8.0,94,0.00,,,-99.99,,2013-02-17 08:52:00,
2013-02-17 04:02:00,20.0,19.0,29.78,South,175,2.0,12.0,94,0.00,,,-99.99,,2013-02-17 09:02:00,
2013-02-17 04:11:00,20.0,19.0,29.78,South,175,2.0,12.0,94,0.00,,,-99.99,,2013-02-17 09:11:00,
2013-02-17 04:21:00,19.0,18.0,29.78,East,86,1.0,12.0,94,0.00,,,-99.99,,2013-02-17 09:21:00,
2013-02-17 04:31:00,19.0,18.0,29.78,WSW,247,0.0,0.0,94,0.00,,,-99.99,,2013-02-17 09:31:00,
2013-02-17 04:42:00,19.0,18.0,29.78,WSW,247,0.0,0.0,94,0.00,,,-99.99,,2013-02-17 09:42:00,
2013-02-17 04:52:00,19.0,18.0,29.78,WSW,247,0.0,0.0,94,0.00,,,-99.99,,2013-02-17 09:52:00,
2013-02-17 05:01:00,18.0,17.0,29.78,WSW,247,0.0,0.0,95,0.00,,,-99.99,,2013-02-17 10:01:00,
2013-02-17 05:11:00,18.0,17.0,29.78,SSW,208,0.0,6.0,95,0.00,,,-99.99,,2013-02-17 10:11:00,
2013-02-17 05:21:00,18.0,17.0,29.78,SSW,208,0.0,6.0,95,0.00,,,-99.99,,2013-02-17 10:21:00,
2013-02-17 05:32:00,18.0,17.0,29.79,North,5,0.0,1.0,94,0.00,,,-99.99,,2013-02-17 10:32:00,
2013-02-17 05:42:00,18.0,17.0,29.79,North,5,0.0,1.0,94,0.00,,,-99.99,,2013-02-17 10:42:00,
2013-02-17 05:52:00,17.0,16.0,29.79,NNE,20,0.0,5.0,94,0.00,,,-99.99,,2013-02-17 10:52:00,
2013-02-17 06:01:00,17.0,16.0,29.80,WSW,246,0.0,0.0,94,0.00,,,-99.99,,2013-02-17 11:01:00,
2013-02-17 06:11:00,17.0,16.0,29.80,WSW,246,0.0,0.0,94,0.00,,,-99.99,,2013-02-17 11:11:00,
2013-02-17 06:21:00,17.0,16.0,29.80,South,182,0.0,4.0,94,0.00,,,-99.99,,2013-02-17 11:21:00,
2013-02-17 06:32:00,17.0,16.0,29.80,SW,217,0.0,0.0,94,0.00,,,-99.99,,2013-02-17 11:32:00,
2013-02-17 06:42:00,17.0,16.0,29.80,SW,217,0.0,0.0,94,0.00,,,-99.99,,2013-02-17 11:42:00,
2013-02-17 06:52:00,17.0,16.0,29.80,SW,228,0.0,1.0,94,0.00,,,-99.99,,2013-02-17 11:52:00,
2013-02-17 07:03:00,16.0,15.0,29.81,SW,221,0.0,0.0,94,0.00,,,-99.99,,2013-02-17 12:03:00,
2013-02-17 07:11:00,16.0,15.0,29.81,SW,221,0.0,0.0,94,0.00,,,-99.99,,2013-02-17 12:11:00,
2013-02-17 07:22:00,17.0,16.0,29.81,SW,221,0.0,0.0,94,0.00,,,-99.99,,2013-02-17 12:22:00,
2013-02-17 07:32:00,17.0,16.0,29.81,SW,216,0.0,8.0,94,0.00,,,-99.99,,2013-02-17 12:32:00,
2013-02-17 07:42:00,17.0,16.0,29.81,SW,216,0.0,8.0,94,0.00,,,-99.99,,2013-02-17 12:42:00,
2013-02-17 07:52:00,16.0,15.0,29.83,SW,215,2.0,11.0,94,0.00,,,-99.99,,2013-02-17 12:52:00,
2013-02-17 08:02:00,16.0,15.0,29.83,SW,228,0.0,10.0,94,0.00,,,-99.99,,2013-02-17 13:02:00,
2013-02-17 08:12:00,16.0,15.0,29.83,SW,228,0.0,10.0,94,0.00,,,-99.99,,2013-02-17 13:12:00,
2013-02-17 08:22:00,16.0,15.0,29.83,SSW,202,0.0,8.0,94,0.00,,,-99.99,,2013-02-17 13:22:00,
2013-02-17 08:32:00,16.0,14.0,29.84,SSE,157,1.0,12.0,93,0.00,,,-99.99,,2013-02-17 13:32:00,
2013-02-17 08:42:00,16.0,14.0,29.84,SSE,157,1.0,12.0,93,0.00,,,-99.99,,2013-02-17 13:42:00,
2013-02-17 08:52:00,17.0,15.0,29.85,WSW,239,2.0,11.0,93,0.00,,,-99.99,,2013-02-17 13:52:00,
2013-02-17 09:01:00,17.0,15.0,29.85,SW,231,0.0,9.0,93,0.00,,,-99.99,,2013-02-17 14:01:00,
2013-02-17 09:11:00,17.0,15.0,29.85,SW,231,0.0,9.0,93,0.00,,,-99.99,,2013-02-17 14:11:00,
2013-02-17 09:22:00,17.0,15.0,29.85,SW,230,0.0,9.0,92,0.00,,,-99.99,,2013-02-17 14:22:00,
2013-02-17 09:32:00,17.0,15.0,29.86,SSW,200,2.0,12.0,92,0.20,,,-99.99,,2013-02-17 14:32:00,
2013-02-17 09:42:00,17.0,15.0,29.86,SSW,200,2.0,12.0,92,0.20,,,-99.99,,2013-02-17 14:42:00,
2013-02-17 09:52:00,17.0,15.0,29.86,SW,225,3.0,12.0,92,0.20,,,-99.99,,2013-02-17 14:52:00,
2013-02-17 10:02:00,17.0,15.0,29.87,SW,236,0.0,10.0,92,0.20,,,-99.99,,2013-02-17 15:02:00,
2013-02-17 10:11:00,17.0,15.0,29.87,SW,236,0.0,10.0,92,0.20,,,-99.99,,2013-02-17 15:11:00,
2013-02-17 10:21:00,18.0,16.0,29.87,SW,215,5.0,13.0,92,0.20,,,-99.99,,2013-02-17 15:21:00,
2013-02-17 10:32:00,18.0,16.0,29.87,SW,222,1.0,9.0,91,0.07,,,-99.99,,2013-02-17 15:32:00,
2013-02-17 10:42:00,18.0,16.0,29.87,SW,222,1.0,9.0,91,0.07,,,-99.99,,2013-02-17 15:42:00,
2013-02-17 10:52:00,19.0,17.0,29.87,SSW,203,2.0,12.0,91,0.07,,,-99.99,,2013-02-17 15:52:00,
2013-02-17 11:01:00,19.0,17.0,29.88,SW,214,3.0,10.0,91,0.07,,,-99.99,,2013-02-17 16:01:00,
2013-02-17 11:12:00,19.0,17.0,29.88,SW,214,3.0,10.0,91,0.07,,,-99.99,,2013-02-17 16:12:00,
2013-02-17 11:21:00,19.0,17.0,29.88,South,181,5.0,16.0,91,0.07,,,-99.99,,2013-02-17 16:21:00,
2013-02-17 11:32:00,20.0,18.0,29.89,SSW,199,6.0,16.0,91,0.00,,,-99.99,,2013-02-17 16:32:00,
2013-02-17 11:52:00,21.0,19.0,29.89,SSW,206,6.0,17.0,90,0.00,,,-99.99,,2013-02-17 16:52:00,
2013-02-17 12:02:00,21.0,19.0,29.91,SW,214,5.0,15.0,90,0.00,,,-99.99,,2013-02-17 17:02:00,
2013-02-17 12:21:00,22.0,19.0,29.89,SSW,205,9.0,20.0,89,0.00,,,-99.99,,2013-02-17 17:21:00,
2013-02-17 12:32:00,22.0,19.0,29.89,South,177,7.0,22.0,88,0.06,,,-99.99,,2013-02-17 17:32:00,
2013-02-17 12:52:00,22.0,19.0,29.91,SSW,200,6.0,15.0,88,0.06,,,-99.99,,2013-02-17 17:52:00,
2013-02-17 13:02:00,23.0,20.0,29.91,South,191,7.0,21.0,87,0.06,,,-99.99,,2013-02-17 18:02:00,
2013-02-17 13:22:00,24.0,20.0,29.91,SSW,194,7.0,22.0,85,0.06,,,-99.99,,2013-02-17 18:22:00,
2013-02-17 13:33:00,23.0,19.0,29.91,SSW,213,7.0,21.0,83,0.00,,,-99.99,,2013-02-17 18:33:00,
2013-02-17 13:52:00,23.0,18.0,29.91,SSW,201,6.0,26.0,82,0.00,,,-99.99,,2013-02-17 18:52:00,
2013-02-17 14:02:00,22.0,18.0,29.91,SSW,192,6.0,21.0,83,0.00,,,-99.99,,2013-02-17 19:02:00,
2013-02-17 14:11:00,22.0,18.0,29.91,SSW,192,6.0,21.0,83,0.00,,,-99.99,,2013-02-17 19:11:00,
2013-02-17 14:21:00,22.0,19.0,29.91,SSW,199,6.0,16.0,87,0.00,,,-99.99,,2013-02-17 19:21:00,
2013-02-17 14:32:00,21.0,18.0,29.91,SSW,196,8.0,19.0,87,0.02,,,-99.99,,2013-02-17 19:32:00,
2013-02-17 14:42:00,21.0,18.0,29.91,SSW,196,8.0,19.0,87,0.02,,,-99.99,,2013-02-17 19:42:00,
2013-02-17 14:52:00,23.0,20.0,29.91,South,190,6.0,15.0,87,0.02,,,-99.99,,2013-02-17 19:52:00,
2013-02-17 15:02:00,23.0,19.0,29.91,SSW,197,7.0,16.0,86,0.02,,,-99.99,,2013-02-17 20:02:00,
2013-02-17 15:22:00,22.0,18.0,29.92,SSW,201,6.0,16.0,83,0.02,,,-99.99,,2013-02-17 20:22:00,
2013-02-17 15:32:00,21.0,17.0,29.92,SSW,203,6.0,18.0,85,0.02,,,-99.99,,2013-02-17 20:32:00,
2013-02-17 15:42:00,21.0,17.0,29.92,SSW,203,6.0,18.0,85,0.02,,,-99.99,,2013-02-17 20:42:00,
2013-02-17 15:52:00,20.0,16.0,29.92,SSW,199,6.0,16.0,86,0.00,,,-99.99,,2013-02-17 20:52:00,
2013-02-17 16:02:00,20.0,18.0,29.93,SSW,213,5.0,18.0,90,0.00,,,-99.99,,2013-02-17 21:02:00,
2013-02-17 16:11:00,20.0,18.0,29.93,SSW,213,5.0,18.0,90,0.00,,,-99.99,,2013-02-17 21:11:00,
2013-02-17 16:21:00,21.0,18.0,29.93,South,179,6.0,14.0,89,0.00,,,-99.99,,2013-02-17 21:21:00,
2013-02-17 16:32:00,20.0,16.0,29.94,SSE,151,4.0,14.0,86,0.05,,,-99.99,,2013-02-17 21:32:00,
2013-02-17 16:42:00,20.0,16.0,29.94,SSE,151,4.0,14.0,86,0.05,,,-99.99,,2013-02-17 21:42:00,
2013-02-17 16:52:00,19.0,16.0,29.94,SSW,209,6.0,16.0,88,0.05,,,-99.99,,2013-02-17 21:52:00,
2013-02-17 17:01:00,19.0,16.0,29.96,SSW,206,5.0,14.0,89,0.05,,,-99.99,,2013-02-17 22:01:00,
2013-02-17 17:12:00,19.0,16.0,29.96,SSW,206,5.0,14.0,89,0.05,,,-99.99,,2013-02-17 22:12:00,
2013-02-17 17:22:00,19.0,16.0,29.96,SSW,193,6.0,16.0,88,0.05,,,-99.99,,2013-02-17 22:22:00,
2013-02-17 17:32:00,18.0,16.0,29.96,South,182,4.0,12.0,91,0.00,,,-99.99,,2013-02-17 22:32:00,
2013-02-17 17:42:00,18.0,16.0,29.96,South,182,4.0,12.0,91,0.00,,,-99.99,,2013-02-17 22:42:00,
2013-02-17 17:52:00,19.0,17.0,29.97,WSW,238,1.0,10.0,91,0.00,,,-99.99,,2013-02-17 22:52:00,
2013-02-17 18:02:00,19.0,17.0,29.98,SSW,200,6.0,16.0,91,0.00,,,-99.99,,2013-02-17 23:02:00,
2013-02-17 18:11:00,19.0,17.0,29.98,SSW,200,6.0,16.0,91,0.00,,,-99.99,,2013-02-17 23:11:00,
2013-02-17 18:21:00,18.0,16.0,29.99,SW,214,5.0,12.0,90,0.00,,,-99.99,,2013-02-17 23:21:00,
2013-02-17 18:32:00,18.0,16.0,30.01,SE,138,5.0,17.0,90,0.00,,,-99.99,,2013-02-17 23:32:00,
2013-02-17 18:42:00,18.0,16.0,30.01,SE,138,5.0,17.0,90,0.00,,,-99.99,,2013-02-17 23:42:00,
2013-02-17 18:52:00,18.0,16.0,30.01,SSW,201,3.0,13.0,90,0.00,,,-99.99,,2013-02-17 23:52:00,
2013-02-17 19:01:00,17.0,15.0,30.01,SW,215,2.0,13.0,90,0.00,,,-99.99,,2013-02-18 00:01:00,
2013-02-17 19:11:00,17.0,15.0,30.01,SW,215,2.0,13.0,90,0.00,,,-99.99,,2013-02-18 00:11:00,
2013-02-17 19:22:00,18.0,16.0,30.01,SSW,210,6.0,16.0,90,0.00,,,-99.99,,2013-02-18 00:22:00,
2013-02-17 19:32:00,17.0,14.0,30.02,SW,228,4.0,11.0,89,0.00,,,-99.99,,2013-02-18 00:32:00,
2013-02-17 19:41:00,17.0,14.0,30.02,SW,228,4.0,11.0,89,0.00,,,-99.99,,2013-02-18 00:41:00,
2013-02-17 19:52:00,17.0,14.0,30.02,SW,214,1.0,12.0,88,0.00,,,-99.99,,2013-02-18 00:52:00,
2013-02-17 20:01:00,17.0,14.0,30.03,SSW,200,6.0,15.0,87,0.00,,,-99.99,,2013-02-18 01:01:00,
2013-02-17 20:12:00,17.0,14.0,30.03,SSW,200,6.0,15.0,87,0.00,,,-99.99,,2013-02-18 01:12:00,
2013-02-17 20:21:00,17.0,14.0,30.04,SSW,197,1.0,10.0,86,0.00,,,-99.99,,2013-02-18 01:21:00,
2013-02-17 20:32:00,17.0,14.0,30.04,SW,214,6.0,16.0,86,0.00,,,-99.99,,2013-02-18 01:32:00,
2013-02-17 20:42:00,17.0,14.0,30.04,SW,214,6.0,16.0,86,0.00,,,-99.99,,2013-02-18 01:42:00,
2013-02-17 20:52:00,17.0,13.0,30.04,South,184,4.0,13.0,85,0.00,,,-99.99,,2013-02-18 01:52:00,
2013-02-17 21:02:00,17.0,13.0,30.05,SSW,197,6.0,16.0,85,0.00,,,-99.99,,2013-02-18 02:02:00,
2013-02-17 21:11:00,17.0,13.0,30.05,SSW,197,6.0,16.0,85,0.00,,,-99.99,,2013-02-18 02:11:00,
2013-02-17 21:22:00,17.0,13.0,30.06,SSW,204,6.0,19.0,84,0.00,,,-99.99,,2013-02-18 02:22:00,
2013-02-17 21:32:00,16.0,12.0,30.06,South,174,8.0,21.0,84,0.00,,,-99.99,,2013-02-18 02:32:00,
2013-02-17 21:42:00,16.0,12.0,30.06,South,174,8.0,21.0,84,0.00,,,-99.99,,2013-02-18 02:42:00,
2013-02-17 21:52:00,16.0,12.0,30.07,SSW,196,7.0,17.0,83,0.00,,,-99.99,,2013-02-18 02:52:00,
2013-02-17 22:01:00,16.0,12.0,30.09,SSW,196,6.0,19.0,83,0.00,,,-99.99,,2013-02-18 03:01:00,
2013-02-17 22:11:00,16.0,12.0,30.09,SSW,196,6.0,19.0,83,0.00,,,-99.99,,2013-02-18 03:11:00,
2013-02-17 22:21:00,16.0,12.0,30.09,SSE,166,4.0,15.0,83,0.00,,,-99.99,,2013-02-18 03:21:00,
2013-02-17 22:32:00,16.0,12.0,30.09,SSE,152,6.0,18.0,83,0.02,,,-99.99,,2013-02-18 03:32:00,
2013-02-17 22:42:00,16.0,12.0,30.09,SSE,152,6.0,18.0,83,0.02,,,-99.99,,2013-02-18 03:42:00,
2013-02-17 22:52:00,15.0,11.0,30.09,South,191,3.0,14.0,83,0.02,,,-99.99,,2013-02-18 03:52:00,
2013-02-17 23:01:00,15.0,11.0,30.09,South,184,6.0,17.0,83,0.02,,,-99.99,,2013-02-18 04:01:00,
2013-02-17 23:11:00,15.0,11.0,30.09,South,184,6.0,17.0,83,0.02,,,-99.99,,2013-02-18 04:11:00,
2013-02-17 23:21:00,14.0,10.0,30.09,South,188,4.0,19.0,83,0.02,,,-99.99,,2013-02-18 04:21:00,
2013-02-17 23:32:00,14.0,10.0,30.09,SSW,203,4.0,19.0,83,0.00,,,-99.99,,2013-02-18 04:32:00,
2013-02-17 23:42:00,14.0,10.0,30.09,SSW,203,4.0,19.0,83,0.00,,,-99.99,,2013-02-18 04:42:00,
2013-02-17 23:52:00,14.0,10.0,30.10,SSW,212,1.0,10.0,84,0.00,,,-99.99,,2013-02-18 04:52:00,